�������l�o���
Date,Time,MP-1(��Sv/h),MP-2(��Sv/h),MP-3(��Sv/h),MP-4(��Sv/h),MP-5(��Sv/h),MP-6(��Sv/h),MP-7(��Sv/h),MP-8(��Sv/h),����,����(m/s),���J
2023/12/28,00:00,0.518,0.785,0.487,0.991,0.706,0.312,0.563,0.525,���k��,8.2,��
2023/12/28,00:10,0.518,0.785,0.487,0.992,0.707,0.313,0.563,0.527,���k��,8.5,��
2023/12/28,00:20,0.515,0.787,0.487,0.990,0.706,0.313,0.564,0.526,���k��,6.1,��
2023/12/28,00:30,0.517,0.787,0.487,0.992,0.706,0.312,0.563,0.526,���k��,7.0,��
2023/12/28,00:40,0.519,0.784,0.486,0.987,0.706,0.313,0.563,0.528,�k��,6.0,��
2023/12/28,00:50,0.517,0.785,0.488,0.991,0.708,0.313,0.564,0.526,�k��,4.8,��
2023/12/28,01:00,0.517,0.786,0.488,0.991,0.706,0.313,0.563,0.526,�k��,2.3,��
2023/12/28,01:10,0.516,0.785,0.488,0.989,0.707,0.312,0.564,0.526,�k��,3.0,��
2023/12/28,01:20,0.515,0.786,0.487,0.990,0.704,0.313,0.563,0.527,�k��,4.4,��
2023/12/28,01:30,0.516,0.784,0.489,0.991,0.705,0.312,0.563,0.528,�k��,4.7,��
2023/12/28,01:40,0.516,0.786,0.487,0.992,0.707,0.312,0.561,0.526,�k��,5.4,��
2023/12/28,01:50,0.517,0.786,0.488,0.991,0.706,0.313,0.562,0.525,�k��,5.7,��
2023/12/28,02:00,0.516,0.785,0.488,0.991,0.705,0.312,0.563,0.527,�k��,5.8,��
2023/12/28,02:10,0.515,0.785,0.487,0.991,0.706,0.313,0.563,0.527,�k��,5.0,��
2023/12/28,02:20,0.516,0.787,0.488,0.991,0.705,0.313,0.562,0.526,�k��,6.3,��
2023/12/28,02:30,0.515,0.785,0.489,0.990,0.706,0.312,0.562,0.526,�k��,5.9,��
2023/12/28,02:40,0.516,0.786,0.486,0.990,0.707,0.312,0.564,0.526,�k��,6.8,��
2023/12/28,02:50,0.516,0.785,0.488,0.991,0.707,0.313,0.563,0.527,�k��,6.4,��
2023/12/28,03:00,0.517,0.785,0.486,0.991,0.704,0.314,0.564,0.529,�k��,7.5,��
2023/12/28,03:10,0.517,0.783,0.489,0.989,0.707,0.312,0.561,0.526,�k��,6.8,��
2023/12/28,03:20,0.518,0.783,0.486,0.990,0.707,0.313,0.561,0.526,�k��,6.3,��
2023/12/28,03:30,0.516,0.785,0.488,0.990,0.705,0.313,0.562,0.527,�k��,6.1,��
2023/12/28,03:40,0.517,0.787,0.488,0.990,0.706,0.312,0.563,0.528,�k��,5.7,��
2023/12/28,03:50,0.516,0.785,0.489,0.991,0.705,0.313,0.563,0.527,�k�k��,6.0,��
2023/12/28,04:00,0.517,0.783,0.487,0.990,0.707,0.312,0.563,0.525,�k�k��,5.8,��
2023/12/28,04:10,0.517,0.784,0.489,0.991,0.706,0.313,0.562,0.526,�k��,4.5,��
2023/12/28,04:20,0.515,0.784,0.487,0.990,0.707,0.314,0.561,0.527,�k��,4.5,��
2023/12/28,04:30,0.515,0.784,0.486,0.990,0.706,0.312,0.562,0.527,�k��,3.8,��
2023/12/28,04:40,0.515,0.784,0.486,0.991,0.704,0.313,0.562,0.525,�k��,4.0,��
2023/12/28,04:50,0.516,0.784,0.487,0.989,0.704,0.314,0.562,0.525,�k��,4.9,��
2023/12/28,05:00,0.513,0.784,0.488,0.991,0.706,0.313,0.561,0.526,�k��,4.7,��
2023/12/28,05:10,0.516,0.785,0.488,0.991,0.704,0.313,0.561,0.526,�k��,4.7,��
2023/12/28,05:20,0.517,0.785,0.486,0.991,0.705,0.313,0.562,0.526,�k�k��,4.8,��
2023/12/28,05:30,0.515,0.784,0.488,0.990,0.704,0.312,0.563,0.525,�k�k��,5.6,��
2023/12/28,05:40,0.515,0.784,0.487,0.990,0.706,0.312,0.561,0.525,�k��,6.5,��
2023/12/28,05:50,0.517,0.784,0.487,0.991,0.706,0.312,0.562,0.526,�k��,5.6,��
2023/12/28,06:00,0.516,0.784,0.488,0.991,0.706,0.312,0.562,0.528,�k��,4.9,��
2023/12/28,06:10,0.515,0.784,0.487,0.992,0.705,0.311,0.564,0.525,�k��,3.9,��
2023/12/28,06:20,0.517,0.785,0.487,0.989,0.704,0.313,0.561,0.526,�k��,3.6,��
2023/12/28,06:30,0.517,0.784,0.487,0.990,0.705,0.314,0.560,0.528,�k��,3.3,��
2023/12/28,06:40,0.516,0.785,0.486,0.990,0.707,0.313,0.561,0.526,�k��,4.6,��
2023/12/28,06:50,0.517,0.783,0.489,0.989,0.706,0.314,0.560,0.525,�k��,4.2,��
2023/12/28,07:00,0.517,0.785,0.488,0.992,0.706,0.312,0.561,0.526,�k��,4.1,��
2023/12/28,07:10,0.515,0.784,0.489,0.991,0.706,0.313,0.561,0.527,�k��,4.0,��
2023/12/28,07:20,0.517,0.784,0.488,0.989,0.703,0.312,0.561,0.526,���k��,2.3,��
2023/12/28,07:30,0.516,0.785,0.486,0.991,0.707,0.312,0.561,0.525,���k��,1.5,��
2023/12/28,07:40,0.518,0.785,0.489,0.990,0.706,0.312,0.561,0.527,���k��,1.1,��
2023/12/28,07:50,0.517,0.784,0.487,0.992,0.704,0.313,0.562,0.526,�k��,1.5,��
2023/12/28,08:00,0.517,0.784,0.487,0.990,0.706,0.313,0.561,0.526,�k�k��,1.7,��
2023/12/28,08:10,0.516,0.784,0.487,0.991,0.704,0.312,0.560,0.526,�k�k��,2.8,��
2023/12/28,08:20,0.517,0.787,0.487,0.991,0.705,0.313,0.561,0.527,�k�k��,2.5,��
2023/12/28,08:30,0.518,0.786,0.487,0.991,0.706,0.311,0.562,0.527,�k��,2.9,��
2023/12/28,08:40,0.517,0.787,0.487,0.992,0.706,0.312,0.561,0.527,�k�k��,2.5,��
2023/12/28,08:50,0.518,0.785,0.487,0.991,0.706,0.314,0.563,0.527,�k�k��,2.5,��
2023/12/28,09:00,0.518,0.785,0.488,0.990,0.704,0.312,0.562,0.526,�k,2.3,��
2023/12/28,09:10,0.517,0.786,0.486,0.990,0.706,0.315,0.561,0.526,�k,2.5,��
2023/12/28,09:20,0.518,0.786,0.488,0.990,0.706,0.314,0.563,0.527,�k,2.3,��
2023/12/28,09:30,0.517,0.787,0.489,0.992,0.704,0.312,0.563,0.527,�k�k��,3.4,��
2023/12/28,09:40,0.518,0.787,0.489,0.993,0.707,0.313,0.563,0.527,�k�k��,2.9,��
2023/12/28,09:50,0.520,0.786,0.489,0.990,0.706,0.313,0.563,0.527,�k�k��,3.3,��
2023/12/28,10:00,0.516,0.786,0.490,0.991,0.706,0.313,0.563,0.527,�k��,3.0,��
2023/12/28,10:10,0.519,0.786,0.488,0.991,0.706,0.313,0.561,0.527,�k�k��,2.6,��
2023/12/28,10:20,0.517,0.786,0.488,0.990,0.706,0.314,0.561,0.526,�k�k��,4.0,��
2023/12/28,10:30,0.518,0.785,0.490,0.994,0.707,0.314,0.562,0.529,�k,2.6,��
2023/12/28,10:40,0.518,0.785,0.489,0.991,0.706,0.314,0.563,0.528,�k,2.0,��
2023/12/28,10:50,0.518,0.787,0.488,0.991,0.707,0.314,0.562,0.527,�k,2.2,��
2023/12/28,11:00,0.519,0.787,0.490,0.992,0.707,0.313,0.562,0.527,�k��,2.9,��
2023/12/28,11:10,0.519,0.784,0.490,0.992,0.709,0.315,0.562,0.527,�k�k��,2.6,��
2023/12/28,11:20,0.519,0.784,0.489,0.992,0.706,0.314,0.562,0.528,���k��,3.3,��
2023/12/28,11:30,0.520,0.785,0.489,0.992,0.710,0.314,0.562,0.529,�k��,3.2,��
2023/12/28,11:40,0.516,0.787,0.490,0.994,0.708,0.313,0.563,0.529,���k��,3.3,��
2023/12/28,11:50,0.519,0.787,0.489,0.993,0.709,0.315,0.564,0.527,�k��,2.6,��
2023/12/28,12:00,0.519,0.785,0.490,0.992,0.709,0.313,0.564,0.529,���k��,3.3,��
2023/12/28,12:10,0.517,0.786,0.491,0.992,0.708,0.313,0.565,0.527,���k��,3.0,��
2023/12/28,12:20,0.519,0.785,0.489,0.992,0.709,0.316,0.564,0.529,���k��,2.3,��
2023/12/28,12:30,0.520,0.786,0.487,0.992,0.711,0.314,0.564,0.528,�k��,2.2,��
2023/12/28,12:40,0.519,0.786,0.490,0.993,0.709,0.313,0.566,0.529,���k��,2.3,��
2023/12/28,12:50,0.519,0.785,0.491,0.993,0.708,0.316,0.564,0.528,���k��,1.9,��
2023/12/28,13:00,0.518,0.785,0.491,0.990,0.710,0.316,0.563,0.527,���k��,1.9,��
2023/12/28,13:10,0.521,0.785,0.491,0.991,0.711,0.314,0.565,0.528,�쓌,2.6,��
2023/12/28,13:20,0.518,0.786,0.490,0.994,0.709,0.315,0.564,0.528,���쓌,2.0,��
2023/12/28,13:30,0.519,0.786,0.490,0.990,0.710,0.315,0.564,0.526,��,2.6,��
2023/12/28,13:40,0.519,0.786,0.490,0.991,0.710,0.314,0.563,0.525,��,2.3,��
2023/12/28,13:50,0.518,0.787,0.491,0.993,0.710,0.314,0.563,0.527,��,2.3,��
2023/12/28,14:00,0.520,0.786,0.491,0.991,0.709,0.314,0.565,0.526,���쓌,1.9,��
2023/12/28,14:10,0.518,0.785,0.491,0.993,0.709,0.315,0.565,0.527,��,1.5,��
2023/12/28,14:20,0.520,0.786,0.491,0.992,0.709,0.316,0.564,0.527,���쓌,2.0,��
2023/12/28,14:30,0.519,0.789,0.491,0.994,0.708,0.315,0.563,0.528,���쓌,1.7,��
2023/12/28,14:40,0.519,0.786,0.490,0.994,0.709,0.315,0.565,0.529,���쓌,1.2,��
2023/12/28,14:50,0.518,0.789,0.491,0.994,0.711,0.314,0.563,0.529,���쓌,1.7,��
2023/12/28,15:00,0.519,0.786,0.493,0.994,0.711,0.312,0.565,0.528,���k��,1.4,��
2023/12/28,15:10,0.518,0.789,0.492,0.993,0.708,0.315,0.563,0.528,��쓌,0.9,��
2023/12/28,15:20,0.518,0.788,0.491,0.993,0.710,0.316,0.564,0.528,���k��,1.5,��
2023/12/28,15:30,0.518,0.788,0.491,0.992,0.709,0.315,0.564,0.528,���쓌,1.5,��
2023/12/28,15:40,0.519,0.790,0.491,0.993,0.711,0.315,0.563,0.529,���쓌,1.4,��
2023/12/28,15:50,0.518,0.789,0.493,0.992,0.708,0.316,0.564,0.527,��,1.5,��
2023/12/28,16:00,0.518,0.789,0.491,0.993,0.710,0.315,0.565,0.528,��쓌,0.9,��
2023/12/28,16:10,0.519,0.788,0.490,0.993,0.709,0.315,0.565,0.528,��쐼,0.9,��
2023/12/28,16:20,0.519,0.787,0.488,0.995,0.707,0.315,0.564,0.527,��쐼,1.2,��
2023/12/28,16:30,0.519,0.789,0.491,0.992,0.712,0.315,0.562,0.529,��,1.5,��
2023/12/28,16:40,0.518,0.788,0.490,0.992,0.709,0.315,0.565,0.527,��쐼,1.2,��
2023/12/28,16:50,0.520,0.788,0.492,0.992,0.711,0.315,0.565,0.528,��쐼,1.7,��
2023/12/28,17:00,0.518,0.788,0.490,0.992,0.708,0.314,0.563,0.526,���쐼,0.8,��
2023/12/28,17:10,0.518,0.786,0.490,0.990,0.708,0.314,0.564,0.528,�쐼,2.0,��
2023/12/28,17:20,0.517,0.788,0.491,0.992,0.709,0.314,0.563,0.528,���쐼,2.6,��
2023/12/28,17:30,0.519,0.788,0.491,0.990,0.709,0.314,0.564,0.527,�쐼,3.4,��
2023/12/28,17:40,0.518,0.789,0.490,0.994,0.708,0.313,0.563,0.528,��쐼,3.1,��
2023/12/28,17:50,0.519,0.787,0.490,0.994,0.708,0.316,0.563,0.529,��,3.2,��
2023/12/28,18:00,0.519,0.788,0.490,0.993,0.710,0.316,0.562,0.527,��,2.8,��
2023/12/28,18:10,0.519,0.786,0.490,0.993,0.709,0.313,0.562,0.528,��,3.1,��
2023/12/28,18:20,0.520,0.787,0.490,0.992,0.709,0.314,0.563,0.527,��,4.0,��
2023/12/28,18:30,0.521,0.788,0.491,0.991,0.709,0.315,0.564,0.526,��쐼,4.4,��
2023/12/28,18:40,0.519,0.789,0.491,0.990,0.710,0.315,0.564,0.527,��쐼,3.4,��
2023/12/28,18:50,0.517,0.788,0.489,0.993,0.708,0.313,0.563,0.528,��쐼,2.6,��
2023/12/28,19:00,0.518,0.787,0.489,0.993,0.710,0.315,0.562,0.527,��쐼,2.8,��
2023/12/28,19:10,0.518,0.788,0.490,0.991,0.708,0.314,0.563,0.528,�쐼,2.3,��
2023/12/28,19:20,0.518,0.789,0.491,0.994,0.707,0.315,0.562,0.527,��,2.6,��
2023/12/28,19:30,0.519,0.789,0.491,0.993,0.708,0.314,0.564,0.528,��,4.6,��
2023/12/28,19:40,0.520,0.786,0.489,0.992,0.709,0.315,0.564,0.527,��,3.7,��
2023/12/28,19:50,0.519,0.790,0.489,0.993,0.707,0.314,0.563,0.528,��쐼,3.5,��
2023/12/28,20:00,0.518,0.788,0.491,0.993,0.708,0.315,0.563,0.527,�쐼,2.3,��
2023/12/28,20:10,0.519,0.788,0.490,0.992,0.709,0.315,0.563,0.528,���쐼,1.5,��
2023/12/28,20:20,0.518,0.788,0.490,0.991,0.708,0.314,0.564,0.527,��,2.0,��
2023/12/28,20:30,0.519,0.788,0.491,0.994,0.710,0.315,0.564,0.528,��,2.3,��
2023/12/28,20:40,0.518,0.788,0.492,0.995,0.709,0.314,0.562,0.528,��,1.7,��
2023/12/28,20:50,0.520,0.788,0.492,0.995,0.709,0.314,0.563,0.528,���k��,1.9,��
2023/12/28,21:00,0.519,0.788,0.490,0.993,0.709,0.314,0.564,0.527,�k��,4.3,��
2023/12/28,21:10,0.518,0.789,0.489,0.994,0.707,0.315,0.563,0.528,�k��,4.0,��
2023/12/28,21:20,0.520,0.787,0.490,0.993,0.707,0.314,0.563,0.528,�k��,3.7,��
2023/12/28,21:30,0.519,0.789,0.490,0.994,0.709,0.315,0.563,0.527,�k��,4.2,��
2023/12/28,21:40,0.521,0.790,0.491,0.991,0.707,0.316,0.564,0.528,�k��,4.0,��
2023/12/28,21:50,0.519,0.787,0.491,0.992,0.707,0.315,0.564,0.528,�k��,3.6,��
2023/12/28,22:00,0.519,0.787,0.492,0.991,0.708,0.315,0.565,0.527,�k��,2.3,��
2023/12/28,22:10,0.519,0.788,0.492,0.992,0.709,0.315,0.563,0.529,�k��,1.4,��
2023/12/28,22:20,0.521,0.786,0.492,0.994,0.710,0.315,0.565,0.527,�k��,1.4,��
2023/12/28,22:30,0.520,0.786,0.490,0.992,0.709,0.316,0.563,0.528,���쐼,2.0,��
2023/12/28,22:40,0.519,0.785,0.489,0.994,0.709,0.315,0.563,0.527,���쐼,2.2,��
2023/12/28,22:50,0.519,0.787,0.490,0.992,0.708,0.316,0.564,0.528,�쐼,1.7,��
2023/12/28,23:00,0.519,0.786,0.491,0.992,0.710,0.315,0.563,0.527,�쐼,1.5,��
2023/12/28,23:10,0.519,0.786,0.490,0.993,0.708,0.314,0.564,0.527,��,2.6,��
2023/12/28,23:20,0.519,0.789,0.491,0.994,0.709,0.315,0.563,0.528,��쐼,2.3,��
2023/12/28,23:30,0.519,0.786,0.490,0.994,0.710,0.315,0.561,0.528,�쐼,2.8,��
2023/12/28,23:40,0.519,0.786,0.489,0.993,0.709,0.316,0.564,0.529,��쐼,2.2,��
2023/12/28,23:50,0.518,0.788,0.490,0.994,0.707,0.316,0.562,0.530,��쐼,3.0,��
